Wiley, CO

5:36 AM MDT on September 25, 2016 (GMT -0600)
Lamar Municipal

Weather History for KLAA - January, 2012

Change the Weather History Date:

Monday, January 16, 2012

  Actual Average Record
Temperature  
Mean Temperature 33 °F 29 °F  
Max Temperature 41 °F 45 °F 65 °F (2015)
Min Temperature 25 °F 13 °F -12 °F (1984)
Degree Days  
Heating Degree Days 32 36  
Month to date heating degree days 573 588  
Since 1 July heating degree days 2891 2901  
Cooling Degree Days 0 0  
Month to date cooling degree days 0 0  
Year to date cooling degree days 0 0  
Moisture  
Dew Point 25 °F    
Average Humidity 70    
Maximum Humidity 81    
Minimum Humidity 59    
Precipitation  
Precipitation 0.00 in 0.01 in 0.52 in (2001)
Month to date precipitation 0.00 0.11  
Year to date precipitation 0.11  
Sea Level Pressure  
Sea Level Pressure 29.74 in    
Wind  
Wind Speed 11 mph (ENE)    
Max Wind Speed 24 mph    
Max Gust Speed 30 mph    
Visibility 10 miles    
Events      
T = Trace of Precipitation, MM = Missing Value Source: NWS Daily Summary

Daily Weather History Graph

Daily Weather History Graph

Search for Another Location

Airport or City:

Trip Planner

Search our weather history database for the weather conditions in past years. The results will help you decide how hot, cold, wet, or windy it might be!

Date:

Astronomy

Jan. 16, 2012 Rise Set
Actual Time 7:05 AM MST 4:55 PM MST
Civil Twilight 6:36 AM MST 5:24 PM MST
Nautical Twilight 6:04 AM MST 5:56 PM MST
Astronomical Twilight 5:32 AM MST 6:28 PM MST
Moon 12:18 AM MST (1/16) 11:09 AM MST (1/16)
Length of Visible Light 10h 47m
Length of Day
9h 50m
Last Quarter, 45% of the Moon is Illuminated
Jan 16
Last Quarter
Jan 23
New
Jan 30
First Quarter
Feb 7
Full
Feb 14
Last Quarter

Hourly Weather History & Observations

Time (MST) Temp. Windchill Dew Point Humidity Pressure Visibility Wind Dir Wind Speed Gust Speed Precip Events Conditions
12:53 AM 37.0 °F 27.0 °F 26.1 °F 65% 29.69 in 10.0 mi WSW 18.4 mph - N/A   Clear
1:53 AM 37.0 °F 28.1 °F 27.0 °F 67% 29.68 in 10.0 mi WSW 15.0 mph - N/A   Clear
2:53 AM 37.9 °F 29.6 °F 28.0 °F 68% 29.66 in 10.0 mi WSW 13.8 mph - N/A   Clear
3:53 AM 32.0 °F 25.6 °F 25.0 °F 75% 29.67 in 10.0 mi SSE 6.9 mph - N/A   Clear
4:53 AM 33.1 °F 30.0 °F 25.0 °F 72% 29.70 in 10.0 mi WNW 3.5 mph - N/A   Clear
5:53 AM 33.1 °F - 24.1 °F 70% 29.73 in 10.0 mi Calm Calm - N/A   Clear
6:53 AM 28.0 °F 20.0 °F 21.0 °F 75% 29.76 in 10.0 mi ENE 8.1 mph - N/A   Clear
7:53 AM 26.1 °F 19.4 °F 21.0 °F 81% 29.78 in 10.0 mi ENE 5.8 mph - N/A   Clear
8:53 AM 30.0 °F 20.0 °F 21.9 °F 72% 29.77 in 10.0 mi East 12.7 mph - N/A   Clear
9:53 AM 32.0 °F 22.5 °F 23.0 °F 69% 29.75 in 10.0 mi ENE 12.7 mph - N/A   Clear
10:53 AM 34.0 °F 26.6 °F 25.0 °F 70% 29.72 in 10.0 mi East 9.2 mph - N/A   Clear
11:53 AM 35.1 °F 27.4 °F 27.0 °F 72% 29.66 in 10.0 mi East 10.4 mph - N/A   Clear
12:53 PM 37.0 °F 29.8 °F 28.0 °F 70% 29.62 in 10.0 mi East 10.4 mph - N/A   Clear
1:53 PM 39.0 °F 31.0 °F 28.0 °F 65% 29.57 in 10.0 mi East 13.8 mph - N/A   Clear
2:53 PM 39.0 °F 31.4 °F 28.9 °F 67% 29.56 in 10.0 mi East 12.7 mph - N/A   Partly Cloudy
3:53 PM 39.0 °F 31.8 °F 28.9 °F 67% 29.59 in 10.0 mi East 11.5 mph - N/A   Partly Cloudy
4:53 PM 36.0 °F 28.0 °F 28.0 °F 73% 29.62 in 10.0 mi East 11.5 mph - N/A   Clear
5:53 PM 34.0 °F 25.0 °F 26.1 °F 73% 29.68 in 10.0 mi East 12.7 mph - N/A   Clear
6:53 PM 30.9 °F 22.2 °F 25.0 °F 79% 29.78 in 10.0 mi NE 10.4 mph - N/A   Clear
7:53 PM 30.0 °F 19.5 °F 21.9 °F 72% 29.88 in 10.0 mi NE 13.8 mph - N/A   Overcast
9:53 PM 28.0 °F 19.3 °F 21.0 °F 75% 29.98 in 10.0 mi NNE 9.2 mph - N/A   Overcast
10:53 PM 28.0 °F 18.6 °F 19.0 °F 69% 30.04 in 10.0 mi NNE 10.4 mph - N/A   Overcast
11:53 PM 25.0 °F 14.2 °F 19.0 °F 78% 30.08 in 10.0 mi NNE 11.5 mph - N/A   Overcast